weather.gov     
National Weather Service

Other Surface Observations
NWS Homepage
This page is being discontinued on March 12, 2014.
The same data is available at this site. Please update your bookmarks.
Thank you, and we apologize for the inconvenience.
Please send an email to SR-SRH.Webmaster@noaa.gov with any concerns.


Current Version
Previous Version:    01  02  03  04  05  06  07  08  09  10  11  12  13  14  15  16  17  18  19  20  21  22  23  24  25  26  27  28  29  30  
   31  32  33  34  35  36  37  38  39  40  41  42  43  44  45  46  47  48  49  50  51  52  53  54  55  56  57  58  59  60  
[Printable]
203
SXUS52 KTAE 230505
OSOTAE
OSOTAE
North Florida/South Alabama/Southwest Georgia Weather Roundup
National Weather Service Tallahassee Florida
100 AM EDT THU OCT 23 2014

Note: "fair" indicates few or no clouds below 12,000 feet with no
significant weather and/or obstructions to visibility.

!FLZ017-115-028-034-025-230600
...North Florida...

CITY           SKY/WX    TMP DP  RH WIND       PRES   REMARKS
TALLAHASSEE    CLEAR     59  46  62 N3        30.06F
APALACHICOLA   CLEAR     60  49  66 NE6       30.04F
PERRY          CLEAR     55  46  71 CALM      30.06S
CROSS CITY       N/A     51  49  92 CALM      30.03F
JACKSONVILLE   PTCLDY    52  50  93 CALM      30.04F
$$

!FLZ112-006-005-002-011-230600
...Florida Panhandle...

CITY           SKY/WX    TMP DP  RH WIND       PRES   REMARKS
MARIANNA       LGT RAIN  51  48  89 CALM      30.07F
BONIFAY        NOT AVBL
PANAMA CITY NW FAIR      52  45  77 N5        30.05F
TYNDALL AFB    CLEAR     61  48  62 NE5       30.06F
TYND DRONE APT FAIR      59  49  70 MISG      30.04
DE FUNIAK SPR  FAIR      55  46  69 N5        30.07F
EGLIN AFB      CLEAR     54  46  74 N6        30.07F
DESTIN         CLEAR     63  48  58 NE5       30.06F
HURLBURT       CLEAR     52  43  70 N7        30.06F
CRESTVIEW      CLEAR     49  45  86 NE3       30.08F
PENSACOLA      CLEAR     61  45  55 NE7       30.07F
$$

!ALZ063-066-230600
...South Alabama...

CITY           SKY/WX    TMP DP  RH WIND       PRES   REMARKS
DOTHAN         CLEAR     48  43  82 CALM      30.11F
OZARK CAIRNS   CLEAR     52  46  79 CALM      30.08F
FT RUCKER HELI CLEAR     47  44  90 CALM      30.07F
RUCKER HELI 3  FAIR      48  46  92 NW3       30.10F
RUCKER HELI 2  FAIR      49  45  86 CALM      30.08F
FLORALA APT    CLEAR     53  45  74 N5        30.09F
ANDALUSIA      CLEAR     55  45  68 NE3       30.08F
TROY           CLEAR     44  42  93 E3        30.10F
EUFALA         FAIR      51  46  83 CALM      30.08F
MOBILE         CLEAR     53  46  77 N5        30.10S
$$

!GAZ120>161-230600
...Southwest and South Central Georgia...

CITY           SKY/WX    TMP DP  RH WIND       PRES   REMARKS
THOMASVILLE    FAIR      52  52 100 CALM      30.09S
BAINBRIDGE     CLEAR     54  50  87 CALM      30.08S
MOODY AFB      CLEAR     51  45  81 N2        30.07S
VALDOSTA       CLEAR     48  43  82 CALM      30.07F
MOULTRIE       CLEAR     52  50  93 CALM      30.08F
BLAKELY        CLEAR     50  48  93 CALM        N/A
ALBANY         CLEAR     50  46  86 CALM      30.10F
TIFTON         FAIR      49  45  85 CALM      30.08S
FITZGERALD     FAIR      50  45  83 CALM      30.10S
CORDELE        FAIR      48  46  91 CALM      30.09F FOG
AMERICUS       FAIR      46  45  93 NE3       30.10F
HOMERVILLE     FAIR      50  50 100 CALM      30.07F
$$

!GMZ750-755-770-775-230600
...Coastal and Buoy Obs...

STATION/POSITION TIME  TEMP    WIND        PRES    VSBY  WAVE
                       AIR SEA DIR/SP/G                  HT/PER
                 (UTC) (F)     (DEG/KT/KT) (MB)    (MI)  (FT/S)
KEATON BEACH     0500   57      30/  5/  6 1017.4F
CEDAR KEY        0400   65      60/ 13/ 15 1017.2F
C TOWER          0500   71      40/ 19/ 22 1016.3F
APALACHICOLA BUO 0400   76 81   50/ 16/ 19 1015.6F         3/ 5
PANAMA CITY BUOY NOT AVBL
MOBILE BUOY      0445   74 79   40/ 19/ 23 1017.2F         3/ 5
ORANGE BCH AL BU 0400   71 78   30/ 17/ 21 1017.8R         3/ 4
$$




U.S. Dept. of Commerce
NOAA National Weather Service
1325 East West Highway
Silver Spring, MD 20910
E-mail: w-nws.webmaster@noaa.gov
Page last modified: May 16, 2007
NATIONAL WEATHER SERVICE: for Safety, for Work, for Fun - FOR LIFE